Voltar ao catálogo

SZ-22 MODULE

AtivoCiênciaVLEO
NORAD 69328·PAYLOAD·🇨🇳 China

Lançado Nov 25, 2025 de Jiuquan Satellite Launch Center

Loading…

Próximas Passagens (próximas 24 horas)

TLE

AtualizadoSource: Space-Track

Época: Sep 14, 2026, 09:01 UTC

1 69328U 25272C   26257.37620783  .00019026  00000-0  20257-3 0  9991
2 69328  41.4786 138.5660 0006165 341.6574  18.4043 15.63520397 17275

Acompanhe SZ-22 MODULE em tempo real com AllMySat

Download on the App Store